Theta_e
286 286 285 284 283 282 282 280 279 278 277 277 276 276 276 275 275 274 274 274 274 274 275 275 274 275 274 274 274 274 274 274 271 273 275 276 275 274 275 276 277 277 277
286 284 284 282 281 281 280 278 277 277 276 276 276 275 275 274 274 274 273 273 273 272 273 272 272 273 272 272 272 272 271 272 271 268 271 272 272 273 273 273 275 276 276
285 283 282 281 280 279 278 277 277 276 275 275 275 274 273 273 273 273 272 272 272 272 271 271 271 271 271 272 272 271 272 273 272 270 269 272 272 273 272 273 273 274 276
283 283 281 281 280 278 277 276 276 275 274 274 273 272 272 272 272 272 272 271 271 271 271 271 272 272 272 272 272 272 272 271 271 271 270 271 272 274 273 271 271 273 274
283 282 281 280 279 276 276 276 275 274 273 273 272 272 271 271 271 271 272 271 271 271 272 273 273 273 275 275 274 273 273 272 272 272 271 272 272 273 272 273 272 273 274
283 282 281 278 276 275 275 274 273 273 272 272 271 271 270 271 275 276 273 272 273 272 272 273 273 273 273 276 277 278 277 274 273 272 272 272 272 273 273 272 272 271 270
282 281 278 276 275 275 275 274 273 272 272 272 271 271 271 271 276 277 277 275 274 273 272 272 272 274 274 274 276 278 278 278 279 276 273 273 273 274 274 273 272 272 271
281 279 277 276 275 274 273 273 272 271 270 270 270 270 271 271 276 277 277 275 273 273 273 273 272 273 275 275 274 274 275 275 276 276 275 275 275 276 276 275 274 273 274
279 277 276 276 274 273 272 271 271 270 270 270 271 270 270 270 276 276 275 273 273 273 273 274 274 274 275 277 275 273 273 273 277 277 277 278 279 280 279 277 274 273 270
278 277 276 275 274 272 272 271 271 270 270 270 270 269 269 267 273 274 275 273 270 272 273 274 275 274 276 277 275 273 270 270 271 273 274 273 273 273 276 276 275 272 271
276 275 274 274 273 273 271 271 269 270 270 270 269 269 268 268 269 275 276 274 272 271 273 271 273 275 277 277 277 273 270 274 273 268 268 269 270 271 272 275 276 274 272
274 273 272 272 271 271 269 269 269 269 268 268 267 267 269 269 271 274 275 276 275 270 269 272 272 275 275 275 273 273 274 274 267 266 266 267 268 269 271 272 273 275 276
272 271 270 270 269 269 268 267 267 267 267 266 267 267 268 270 270 274 275 274 274 273 272 272 273 272 272 270 271 272 270 267 266 265 265 267 269 270 271 271 272 273 274
269 269 268 268 267 267 268 267 267 267 267 267 267 268 268 268 268 269 270 270 272 271 270 266 268 268 269 269 267 268 267 267 266 266 266 268 269 269 269 270 269 271 270
271 268 268 267 266 266 267 267 268 269 270 268 269 268 267 266 267 270 270 270 269 270 260 258 260 263 263 264 264 265 266 266 265 266 266 266 268 268 268 269 269 269 267
269 268 268 267 266 266 266 267 272 271 274 274 273 270 269 271 274 274 274 272 271 269 257 253 259 260 261 262 262 263 264 265 265 266 265 266 267 267 268 268 268 266 265
270 267 267 266 266 266 266 267 266 272 275 275 274 273 272 273 274 273 273 269 269 263 251 252 257 258 259 261 261 262 262 264 265 265 265 266 268 268 267 265 265 265 264
270 268 267 266 266 266 267 267 268 268 267 268 273 273 273 273 273 273 270 264 257 255 248 249 250 255 258 259 260 260 261 262 263 264 264 266 268 267 265 264 264 264 264
269 267 267 266 267 266 267 267 267 267 266 265 266 270 270 273 272 271 265 256 252 250 247 247 250 254 256 257 258 259 260 261 262 263 264 265 268 267 265 264 265 264 264
269 268 267 267 266 265 266 265 264 264 263 263 263 261 259 260 258 255 254 252 249 248 249 247 250 251 253 255 256 258 259 260 261 263 264 267 267 266 265 264 264 263 263
268 267 266 266 265 266 265 264 263 262 261 261 260 259 262 258 255 254 251 248 247 246 245 247 248 249 252 254 255 257 258 260 261 263 263 267 266 265 265 265 264 264 264
266 266 265 264 264 263 263 263 262 261 260 259 258 260 266 255 254 251 248 248 247 244 244 246 247 247 251 253 255 256 257 258 262 263 264 267 266 265 265 264 264 264 263
264 264 263 262 262 261 261 261 260 259 259 258 258 256 255 253 250 247 247 247 245 243 243 244 245 247 250 253 254 255 257 259 262 264 266 266 265 265 264 263 263 263 262
262 262 261 260 261 260 259 259 258 258 257 256 255 254 253 251 250 248 247 245 242 243 243 244 245 245 249 251 253 255 257 260 263 266 267 266 264 264 264 263 263 263 262
261 260 260 259 259 259 258 257 257 256 255 255 254 253 251 251 250 247 247 243 243 243 245 245 244 246 249 250 251 253 256 260 264 269 267 266 264 264 264 263 263 263 262
260 259 259 258 258 257 257 256 256 255 255 254 254 253 252 252 250 249 246 244 245 246 246 246 245 247 248 251 252 257 260 265 268 269 267 265 264 263 263 263 263 262 262
Wind_Speed
15 16 16 15 14 12 13 11 12 11 11 11 11 10 9 7 7 6 5 4 4 3 4 4 5 3 3 3 4 5 7 8 15 27 14 13 17 18 15 14 16 17 17
15 13 15 11 12 13 12 11 11 12 10 12 11 11 10 9 8 6 6 4 4 4 5 5 5 5 5 6 5 9 9 9 12 25 20 17 19 17 17 19 16 16 17
14 15 14 14 14 14 13 12 12 12 10 10 10 10 9 8 7 6 6 6 5 5 5 6 6 5 8 7 8 8 9 10 11 15 23 16 17 15 18 16 17 18 15
15 16 16 16 16 14 13 14 13 13 13 10 8 7 8 8 8 6 6 6 5 5 6 6 7 9 11 10 9 11 12 12 13 14 18 20 16 17 15 16 17 14 15
16 16 17 15 15 14 15 14 13 12 10 10 10 9 8 7 6 7 7 7 6 6 7 7 8 10 18 18 11 11 13 12 11 13 16 16 17 15 15 13 16 17 16
17 18 16 16 15 17 16 15 15 14 12 11 10 10 10 6 13 14 10 8 7 7 6 7 9 10 14 22 23 26 23 16 17 14 15 17 22 18 16 16 16 17 22
16 15 16 16 16 17 15 15 15 14 13 11 10 10 9 9 15 14 14 7 7 7 7 9 9 8 13 14 20 26 25 28 31 22 23 21 24 20 19 21 20 20 21
15 15 15 17 17 15 15 16 15 14 14 13 12 11 10 9 14 14 13 7 7 8 8 10 11 13 12 14 16 16 17 17 19 17 19 22 20 21 21 21 23 24 22
16 17 17 18 18 17 17 16 13 13 12 11 11 10 10 8 18 15 12 6 8 8 8 9 11 10 17 23 17 17 18 18 18 28 34 38 38 38 33 18 17 16 19
17 17 16 17 18 19 18 17 14 13 11 8 9 8 10 8 14 15 13 6 5 6 7 9 9 12 21 24 16 16 15 18 19 17 17 17 24 23 34 23 16 16 16
7 11 13 14 14 13 13 12 13 13 12 11 11 10 9 9 10 15 15 6 5 4 4 4 5 18 22 25 25 12 15 22 20 15 15 14 15 15 14 14 16 16 17
9 10 10 11 10 11 14 11 13 14 13 11 10 8 7 9 12 15 13 10 8 4 3 4 8 19 23 22 18 21 26 24 11 12 14 14 14 14 13 14 19 19 18
8 9 10 10 8 10 14 13 11 11 11 11 10 8 8 7 6 14 12 8 3 2 0 8 15 17 18 14 18 22 17 10 11 12 14 15 14 15 18 17 18 21 21
12 10 11 12 11 10 9 10 10 11 10 10 9 9 8 7 6 5 4 4 4 2 1 3 7 10 12 12 10 11 9 10 11 13 13 15 15 15 14 13 15 13 15
12 16 18 13 13 13 12 12 12 11 12 12 10 10 11 9 7 10 8 5 4 3 2 2 3 5 6 7 7 9 9 10 11 12 13 15 15 15 15 13 13 14 16
12 10 10 9 13 14 14 12 18 18 20 18 19 15 7 11 15 12 9 7 3 5 2 1 4 4 6 8 8 10 10 12 12 13 14 15 16 15 15 14 14 14 15
14 14 11 11 11 14 12 12 13 17 25 23 21 23 18 14 13 11 10 8 5 5 2 0 4 4 6 7 8 9 11 12 15 13 15 16 16 15 18 15 14 14 14
14 18 14 13 13 13 13 12 12 15 14 11 19 19 20 18 16 12 12 8 2 3 1 2 3 4 6 7 8 9 11 12 13 14 15 16 16 16 16 15 14 15 15
14 12 12 11 12 13 12 11 10 11 11 11 9 14 12 17 16 14 8 3 2 3 1 3 3 5 6 7 8 9 11 12 14 14 14 16 17 16 16 15 15 20 20
13 15 15 12 11 12 13 11 10 9 10 11 9 9 5 4 4 3 2 3 3 3 1 3 5 5 6 7 8 9 10 12 13 13 15 15 17 16 16 17 16 17 15
9 12 15 11 12 11 11 12 11 11 9 9 7 7 13 6 6 4 3 2 4 1 2 3 5 4 5 7 7 8 10 12 13 14 15 16 18 17 16 16 16 15 15
11 12 12 12 12 12 12 11 10 11 10 10 8 5 17 5 5 4 3 3 2 4 3 4 5 4 5 7 8 9 11 13 13 14 15 18 17 18 17 17 17 16 15
11 12 11 11 11 16 12 11 11 11 11 10 7 5 6 4 4 3 3 1 3 4 3 4 5 5 3 6 8 8 11 13 14 15 15 18 18 18 18 18 18 17 17
10 12 12 11 11 11 11 11 10 12 11 10 7 5 5 4 4 3 1 2 4 4 4 4 5 5 5 8 8 9 11 13 13 14 18 17 17 21 19 19 18 23 18
9 10 10 11 11 11 12 11 11 10 9 8 7 5 4 4 3 2 3 3 4 4 5 6 5 4 8 12 14 16 17 24 22 14 13 17 20 24 21 18 21 20 21
10 10 10 9 10 10 10 10 9 9 8 6 6 5 4 3 3 3 3 3 4 4 6 6 5 7 11 11 12 17 21 23 22 20 13 14 17 18 18 21 28 19 22
Wind_Direction
199 198 194 196 189 178 185 185 169 155 157 157 157 158 162 161 147 154 169 176 212 223 227 237 264 288 290 277 262 257 257 256 268 288 287 295 290 296 299 293 286 284 282
198 195 198 182 176 179 182 170 156 160 161 162 162 162 166 164 158 156 162 185 198 224 253 266 271 289 274 261 254 256 250 255 263 277 291 295 290 296 290 287 285 279 279
188 184 185 182 179 184 174 162 161 154 160 161 162 166 166 155 146 150 164 183 205 226 247 261 276 272 267 261 252 256 256 252 254 266 283 285 290 290 289 279 280 280 275
186 186 185 186 183 178 165 160 161 162 163 166 162 153 154 152 148 169 185 194 212 231 242 250 260 260 264 269 268 264 261 258 255 258 268 281 279 285 280 287 283 274 279
186 188 190 181 173 165 164 163 161 159 163 162 151 151 151 151 166 177 186 198 209 234 247 252 260 262 269 271 271 270 268 265 262 263 266 272 280 283 278 286 282 289 276
188 190 179 170 166 172 167 166 163 162 159 159 165 159 164 178 190 190 181 196 218 234 255 265 265 266 265 274 279 283 281 281 274 273 278 276 278 277 278 278 281 282 284
187 177 172 167 173 177 167 167 167 164 156 166 164 165 173 181 191 194 205 202 221 237 252 269 273 271 269 271 276 283 287 282 278 281 281 278 284 283 281 278 273 274 275
177 174 169 170 174 170 168 171 166 165 164 170 170 172 172 180 188 199 206 210 228 243 255 263 266 274 274 291 288 283 279 279 278 271 269 276 273 277 268 266 267 266 269
177 178 177 173 171 170 174 173 168 163 165 170 166 167 169 170 187 190 197 209 229 248 256 262 266 278 291 294 293 296 297 292 287 292 290 287 286 288 288 285 276 266 266
187 182 174 174 172 176 173 169 166 159 161 162 157 164 171 168 186 197 199 194 209 235 252 264 270 283 295 296 300 302 302 304 297 297 307 306 295 285 286 273 274 268 271
146 156 167 174 172 171 163 165 158 152 154 159 158 166 173 166 197 194 205 199 196 216 243 273 281 292 295 311 308 311 299 303 314 318 300 296 294 286 288 286 262 253 257
137 148 161 164 158 157 156 157 161 158 157 157 158 169 172 177 186 198 203 217 234 154 214 286 280 299 313 312 316 308 311 316 307 303 300 294 295 296 291 291 289 283 277
144 151 150 144 153 158 158 162 153 166 161 159 170 168 162 170 184 185 204 215 254 273 199 286 318 313 317 314 310 315 319 303 300 301 298 295 298 299 294 289 284 276 276
152 154 152 156 153 159 161 170 165 177 171 163 169 154 154 158 171 186 199 228 243 249 308 311 320 319 309 309 304 311 301 298 300 292 296 296 296 299 296 293 290 287 286
179 166 169 172 168 167 176 184 169 177 180 168 168 157 152 171 187 187 194 201 186 195 107 21 321 297 321 322 311 311 304 302 300 294 303 295 298 300 296 293 286 292 282
176 174 188 189 173 173 167 171 184 170 173 168 165 133 135 157 185 173 159 124 137 73 62 73 280 309 321 309 313 311 306 305 303 302 304 292 304 303 302 302 293 286 284
196 172 168 180 182 173 175 171 158 166 156 153 148 140 154 165 175 159 133 120 125 90 122 253 273 312 298 300 301 306 309 308 309 302 306 296 305 309 310 303 296 290 284
198 179 168 176 177 176 168 169 165 162 150 151 152 148 157 164 164 152 129 115 71 4 127 257 271 294 287 291 300 301 305 305 308 304 308 301 309 313 309 304 298 294 288
188 179 171 177 176 163 159 159 160 159 147 137 140 141 155 166 159 134 114 127 159 243 99 268 249 266 283 296 293 298 302 300 305 303 309 303 316 314 308 303 299 299 291
185 172 167 167 163 161 154 149 147 151 142 145 149 137 140 99 102 123 139 120 214 219 249 265 275 258 279 282 287 298 309 305 308 307 312 308 318 315 310 308 306 302 294
161 158 160 157 156 159 153 146 144 142 144 146 136 141 157 142 143 152 144 181 228 232 246 255 265 258 276 281 294 306 306 304 303 307 309 320 321 317 315 310 308 301 297
151 150 151 150 147 148 139 134 134 131 133 135 134 182 148 130 133 135 167 230 255 246 228 254 263 244 270 287 304 304 302 303 306 311 305 326 322 320 318 317 314 311 306
138 142 140 141 138 130 123 127 128 130 132 133 138 117 125 130 136 151 196 245 259 259 256 249 262 278 273 299 297 291 295 296 305 312 317 328 325 325 324 322 320 319 315
127 133 130 129 127 121 125 125 124 127 130 129 132 135 130 165 136 137 227 258 268 285 269 264 256 258 298 299 298 298 290 293 304 303 335 329 326 328 326 326 325 325 319
113 119 120 120 124 122 122 122 121 123 124 133 133 137 152 129 122 149 235 253 267 272 285 276 267 290 296 295 293 295 295 303 309 325 338 330 332 334 332 328 332 329 329
104 104 104 112 110 113 116 118 118 121 127 129 130 130 131 143 153 194 233 248 269 286 288 277 290 300 294 294 293 302 306 311 314 353 339 334 337 337 338 334 337 337 336